Theta_e
340 338 337 334 330 332 335 335 332 329 327 326 326 327 328 329 329 329 329 330 340 343 334 338 340 344 346 345 342 341 343 342 339 332 336 340 338 330 336 329 341 341 339
339 338 340 335 331 328 328 329 329 327 327 328 330 333 331 330 331 330 330 330 332 340 341 337 340 341 342 338 341 341 343 343 339 335 336 335 337 338 327 339 340 338 338
337 336 336 336 330 331 335 333 328 328 330 332 341 344 340 332 336 338 328 339 335 331 337 338 338 340 339 340 341 342 343 340 333 336 341 344 340 335 320 325 334 327 319
337 336 333 336 328 329 337 333 329 331 334 340 342 344 338 339 340 341 333 342 342 335 338 339 339 339 338 340 340 337 337 335 333 338 343 341 342 337 336 329 318 319 323
336 336 334 338 333 332 338 335 330 333 334 338 340 340 341 339 339 340 340 331 337 339 336 336 338 337 338 342 340 337 335 332 333 334 326 341 341 331 336 327 322 336 338
337 336 337 340 341 340 337 338 334 336 341 338 340 336 335 337 335 338 336 339 333 340 336 337 336 338 342 343 341 336 335 336 336 335 337 328 331 339 334 322 325 339 333
337 335 340 340 339 338 336 331 338 338 340 337 340 336 336 338 338 338 339 340 330 337 337 334 335 341 342 343 341 338 336 337 335 332 340 342 339 337 331 327 324 326 328
335 339 342 341 342 335 335 335 339 336 340 336 334 338 339 340 339 338 339 332 330 335 336 339 341 342 342 340 339 338 334 334 333 336 339 340 336 335 326 328 328 326 336
335 338 342 337 331 333 339 338 339 339 334 335 334 336 339 340 339 337 338 329 330 335 337 342 341 340 337 336 334 332 333 332 331 333 341 342 333 329 335 335 339 328 327
338 339 337 330 342 343 341 342 340 336 338 331 334 335 341 340 339 335 336 331 332 336 338 340 339 340 339 337 336 336 333 334 340 340 341 335 330 331 330 329 328 329 331
339 340 333 344 337 342 342 341 337 337 335 335 332 335 336 338 336 342 334 331 338 340 341 341 341 341 338 337 335 332 332 335 340 339 340 334 338 337 331 335 329 327 325
342 340 332 342 338 340 343 342 332 327 329 331 334 335 336 335 334 341 336 329 338 341 340 341 341 341 341 341 338 331 329 331 335 337 340 336 333 329 335 331 334 328 327
340 333 335 336 341 341 344 334 326 332 334 336 336 335 336 335 333 333 330 330 336 340 341 341 341 341 341 341 340 335 329 329 331 337 332 334 332 329 330 330 329 328 335
335 332 335 336 339 337 335 328 333 334 336 337 337 336 336 338 338 337 336 337 338 339 340 341 341 339 341 341 340 336 330 329 333 334 332 326 337 327 327 327 327 326 328
330 332 333 335 336 336 333 327 334 333 335 336 337 337 338 340 341 341 340 339 339 339 340 341 341 341 341 341 339 337 336 334 331 331 337 329 328 325 323 324 325 327 325
329 330 332 334 336 336 331 335 334 335 335 337 340 341 340 339 342 342 341 339 339 338 340 340 341 341 342 341 340 339 340 339 339 339 337 336 333 330 329 327 328 328 329
330 331 332 335 336 335 332 334 341 342 339 340 342 341 341 341 341 342 342 341 340 339 339 340 341 341 341 340 341 341 340 341 340 340 339 338 337 336 335 334 334 334 333
333 331 331 335 336 333 336 336 340 341 342 341 340 340 342 342 341 342 341 340 340 341 341 340 341 341 341 341 341 341 341 340 339 338 338 339 338 339 338 338 338 331 327
333 330 330 333 335 332 338 340 340 341 342 342 341 341 342 342 343 341 343 342 340 340 341 339 341 341 341 341 342 341 340 339 339 339 339 339 339 339 337 336 335 329 329
331 330 331 333 335 332 337 340 342 343 344 343 343 343 343 343 343 342 342 341 340 340 340 340 340 341 340 340 340 339 338 338 339 340 340 340 339 339 340 334 331 331 329
332 331 333 333 334 334 335 341 342 342 343 343 344 344 344 343 342 343 341 342 341 338 339 341 340 339 338 340 339 339 338 338 338 339 339 339 340 340 339 341 339 330 329
336 337 336 335 335 337 340 341 342 343 344 344 344 345 342 344 342 343 341 339 340 339 338 339 339 339 338 336 337 338 340 338 338 339 339 339 339 339 340 340 340 335 331
340 339 341 339 338 339 340 341 343 343 344 344 344 343 345 344 344 343 343 340 341 342 339 338 339 340 339 335 336 339 341 341 341 340 339 338 339 339 339 339 339 337 335
343 341 340 341 341 340 341 341 343 343 344 344 342 344 347 345 345 344 343 343 342 342 340 338 338 339 339 337 337 337 340 340 343 343 341 338 338 339 339 338 337 336 337
343 343 342 341 341 341 338 340 343 344 341 343 343 343 345 344 342 343 342 343 342 342 341 340 338 339 338 336 337 339 339 340 342 345 344 343 340 339 339 338 338 338 338
343 343 343 343 342 341 341 339 341 343 341 341 343 343 345 346 342 342 343 341 343 342 343 339 338 339 338 336 335 339 339 343 345 345 346 344 342 342 342 342 342 342 342
Wind_Speed
24 21 19 19 18 18 16 13 12 10 10 9 7 7 6 6 5 4 4 6 8 7 7 8 10 10 12 13 12 14 14 16 16 17 18 17 18 19 19 20 19 18 19
27 22 19 17 17 17 16 13 11 10 9 8 8 8 8 8 7 7 6 6 8 9 10 9 10 11 12 12 13 14 14 16 17 16 19 18 17 17 16 18 17 18 15
26 22 19 17 16 15 14 11 10 9 9 9 10 9 8 9 10 9 11 10 9 9 9 10 10 11 11 11 12 13 14 14 15 18 19 15 16 16 17 16 15 15 15
26 21 19 16 16 14 12 10 9 9 9 8 8 8 9 10 9 9 11 10 9 10 10 10 11 11 12 11 12 12 13 14 15 15 16 14 14 16 16 16 16 16 16
25 21 19 16 14 14 11 9 8 8 9 8 8 9 9 9 10 10 10 10 10 11 11 11 11 11 12 12 13 13 13 14 15 15 15 16 14 15 16 14 15 15 14
25 21 19 15 13 12 9 8 8 8 8 9 8 9 9 9 10 10 11 10 10 12 11 11 12 12 12 10 11 13 14 14 15 15 15 14 15 14 13 13 14 14 12
25 20 17 14 13 12 10 9 8 8 8 8 8 10 10 11 11 10 10 9 10 12 12 12 13 12 12 13 13 12 12 13 13 14 14 14 14 12 13 13 13 12 14
23 19 16 14 12 11 10 10 8 9 8 9 8 10 11 11 11 11 11 8 10 13 15 14 13 14 12 13 11 11 12 13 13 13 13 13 12 12 12 13 13 12 13
22 19 15 14 11 11 10 10 10 9 9 8 10 11 11 11 12 13 12 10 14 15 15 15 16 15 14 12 11 12 12 13 12 12 11 11 11 10 12 12 11 12 12
21 18 15 14 13 11 12 11 10 10 8 10 11 12 10 12 13 13 13 13 16 15 14 13 14 15 13 14 13 12 12 13 10 11 11 9 10 10 10 11 10 10 11
20 18 15 14 13 13 12 11 11 10 10 11 11 11 12 13 13 13 13 14 15 16 15 15 15 14 14 14 13 12 12 11 9 8 8 10 10 9 9 10 10 10 9
20 18 15 13 14 14 13 12 11 12 12 12 14 13 13 14 12 12 12 13 13 13 13 13 12 12 11 12 13 12 11 10 9 8 7 8 7 7 8 8 9 9 9
21 19 17 15 15 14 14 14 13 15 15 15 15 14 15 14 13 13 14 14 14 12 12 10 10 11 11 11 11 11 11 10 9 8 7 8 7 7 5 7 6 7 7
23 21 18 17 16 16 15 15 16 17 16 16 15 16 15 15 13 13 13 13 13 11 9 9 8 8 8 9 10 10 10 10 9 8 7 8 7 6 6 6 6 6 6
23 21 19 18 17 17 17 17 17 17 16 16 15 14 13 12 11 9 9 8 7 7 7 7 10 9 7 9 10 11 11 12 11 8 7 8 7 7 7 6 6 6 6
22 21 20 19 18 19 18 19 17 17 15 13 13 11 10 9 7 7 6 7 5 6 6 7 8 10 9 8 9 10 11 11 11 10 10 9 7 7 6 6 6 6 6
22 22 21 19 19 19 19 19 17 14 13 12 9 9 8 5 4 4 5 7 6 5 5 4 5 7 7 7 6 7 8 9 9 9 10 10 8 7 5 5 6 7 7
22 23 21 21 21 21 20 19 16 13 12 10 9 7 5 2 5 6 6 7 6 6 5 2 3 5 6 6 7 7 9 10 10 10 10 11 11 8 7 7 8 8 7
21 23 22 21 22 22 21 18 16 12 11 10 8 6 6 4 4 5 5 8 8 6 5 4 4 5 5 5 6 6 7 7 7 8 8 9 9 9 7 6 6 7 7
20 23 23 22 22 23 22 19 16 14 11 10 8 5 5 5 4 5 6 8 10 8 6 6 5 6 6 6 6 5 5 5 5 6 6 7 7 8 8 7 6 5 6
23 25 24 24 24 24 25 23 19 14 11 10 8 7 5 5 5 6 6 10 10 9 7 6 6 5 5 4 3 4 3 3 4 6 6 7 7 7 6 6 6 6 6
27 26 25 24 24 25 23 21 20 15 12 10 8 7 5 4 5 8 7 9 9 8 8 7 4 5 4 4 3 7 5 4 8 5 5 4 3 3 4 3 4 5 6
31 29 26 24 23 23 23 21 19 14 13 13 11 8 6 5 4 8 10 10 7 6 7 6 3 3 4 5 0 4 5 5 7 7 6 3 2 3 2 3 4 5 6
33 31 29 25 23 22 23 24 20 18 18 15 10 8 7 6 5 6 9 9 5 10 8 7 6 3 3 4 1 5 5 5 5 4 7 5 2 1 2 3 3 4 6
34 32 31 30 28 25 24 24 21 20 19 15 11 10 8 8 7 6 7 10 9 8 9 8 8 4 6 3 2 4 6 5 8 6 6 6 7 6 5 3 4 5 6
33 32 31 31 31 29 26 24 23 22 20 16 15 12 12 9 8 8 8 9 9 9 10 9 10 9 6 5 5 3 2 3 5 7 6 7 8 7 7 5 5 5 5
Wind_Direction
158 147 135 138 136 134 130 128 125 119 109 108 105 102 98 97 101 103 102 104 96 92 103 105 96 91 94 96 94 88 90 89 83 90 91 87 87 88 90 92 84 87 88
152 147 138 139 137 134 134 130 122 116 114 112 101 88 85 84 84 80 91 103 117 110 104 119 111 107 101 93 95 92 94 91 83 87 91 87 88 89 88 93 95 92 91
151 145 138 141 138 137 129 122 114 115 109 97 92 90 78 81 82 74 89 87 94 121 117 110 110 104 102 100 97 94 94 89 88 94 90 92 90 86 88 92 93 88 87
153 145 143 144 144 142 132 118 113 112 104 98 96 97 88 87 88 86 94 98 93 101 123 114 112 108 107 101 95 98 94 89 88 91 93 94 93 88 90 86 90 89 87
154 147 146 147 148 146 137 120 110 114 111 103 96 91 84 93 91 92 91 86 102 91 112 123 112 113 108 107 92 87 92 89 91 92 94 95 95 91 87 81 88 85 85
156 152 150 148 149 150 146 126 124 120 113 107 92 90 88 96 93 92 95 93 103 94 103 120 118 113 117 108 102 82 91 95 96 94 96 92 96 91 86 80 91 84 84
156 153 149 149 148 146 146 139 138 131 120 111 103 93 96 92 91 88 87 91 97 119 121 118 115 110 107 105 107 88 95 96 90 94 96 91 91 91 77 79 86 88 83
155 153 152 151 150 151 144 142 140 131 123 115 111 108 98 93 94 85 80 83 102 114 111 108 110 111 101 106 103 96 96 96 94 96 99 93 86 82 75 79 80 84 86
158 157 154 154 156 148 147 144 139 132 121 113 113 108 101 96 96 88 81 90 105 112 108 102 102 102 96 92 91 96 92 94 98 100 94 92 84 81 79 80 75 69 79
161 159 160 157 155 152 149 144 140 129 110 119 119 113 106 100 97 93 85 95 106 106 104 102 96 93 89 85 81 83 87 95 97 90 91 89 84 86 80 79 80 73 73
165 163 165 158 158 156 146 144 141 137 134 125 121 114 113 106 103 90 90 99 102 103 98 98 97 88 81 80 73 75 86 94 93 93 88 86 86 79 73 76 71 75 68
170 168 167 165 158 157 149 150 148 132 129 124 117 114 113 108 103 102 100 105 106 103 100 98 93 78 84 80 69 70 83 90 89 90 90 91 79 68 70 69 68 67 67
173 171 167 168 163 163 157 151 146 131 128 124 115 112 110 105 101 99 101 106 109 108 101 92 79 84 90 77 65 61 80 84 84 89 87 85 80 73 74 65 65 63 60
175 173 167 167 168 162 157 149 143 133 131 124 118 113 112 106 102 95 96 104 111 110 98 90 78 90 86 71 66 63 75 82 81 81 84 81 76 66 68 65 58 56 53
178 176 170 170 170 161 161 155 151 139 132 129 123 121 120 114 109 104 100 105 114 114 100 86 87 83 107 88 81 77 74 74 75 76 81 81 76 68 66 64 60 52 47
180 177 174 174 171 166 165 159 157 149 142 138 132 129 124 126 112 109 121 120 109 135 136 95 80 79 92 95 87 78 74 70 72 69 67 63 61 65 63 61 58 47 40
187 181 178 176 172 172 168 169 165 160 157 153 156 147 142 129 137 136 145 144 136 132 161 116 84 85 97 97 84 68 74 70 68 70 62 52 48 50 54 52 48 41 30
190 188 182 181 175 175 171 170 169 169 163 163 162 163 151 145 138 145 154 149 146 124 137 132 104 89 106 95 85 71 69 67 68 66 57 52 52 50 45 45 41 33 31
195 191 186 184 179 176 173 171 173 164 164 168 170 175 186 174 158 153 169 168 158 133 124 115 123 116 118 81 56 71 70 68 63 53 40 35 38 41 39 29 42 44 43
194 192 190 190 185 180 180 176 177 175 177 180 176 166 175 183 169 158 165 165 161 149 128 132 116 120 107 83 83 79 64 48 33 25 14 10 12 19 41 44 44 41 49
195 190 189 189 187 185 185 186 191 198 194 195 193 180 174 172 171 170 159 169 171 164 149 140 131 126 112 83 62 32 23 35 24 3 353 349 342 340 358 27 39 49 59
197 193 191 191 191 191 195 202 200 194 195 195 197 189 173 158 173 168 169 169 163 170 166 151 120 144 141 128 62 31 16 42 24 28 2 343 336 345 4 24 50 67 73
206 203 199 195 198 201 203 200 197 204 201 200 199 193 164 167 166 189 180 171 182 185 191 185 164 135 166 187 163 18 6 16 15 33 36 41 25 12 43 77 85 87 85
212 210 210 206 206 209 207 206 214 212 200 199 200 191 182 187 174 173 187 186 187 187 188 189 201 227 175 184 321 358 6 4 4 30 45 52 39 42 46 67 86 80 72
215 216 218 216 214 215 214 216 217 214 213 212 202 191 191 192 183 179 186 192 188 189 203 198 207 231 194 211 295 342 355 14 39 40 55 59 58 50 51 70 84 74 68
214 217 225 223 221 220 219 221 218 213 215 216 211 202 198 198 195 191 181 187 205 211 208 208 219 212 209 243 264 320 335 23 42 40 50 62 68 64 63 62 76 65 48